This is the latest recevied weather packets stored in our database for station/object WE0DX-1. If no packets are shown the sender has not sent any weather packets the latest 10 day(s).
| Time | Temp. | Humidity | Pressure | Rain* | Wind** | Luminosity | Snow |
|---|---|---|---|---|---|---|---|
| 1777629644 | 3.33° C | 91% | 1018.3 hPa | 0 mm | - | 0 W/m² | - |
| 1777629339 | 3.89° C | 90% | 1018.2 hPa | 0 mm | - | 0 W/m² | - |
| 1777629035 | 4.44° C | 90% | 1018.3 hPa | 0 mm | - | 0 W/m² | - |
| 1777628732 | 4.44° C | 89% | 1018.3 hPa | 0 mm | - | 0 W/m² | - |
| 1777628428 | 4.44° C | 89% | 1018.3 hPa | 0 mm | - | 0 W/m² | - |
| 1777628125 | 4.44° C | 87% | 1018.2 hPa | 0 mm | - | 0 W/m² | - |
| 1777627821 | 4.44° C | 85% | 1018.2 hPa | 0 mm | - | 0 W/m² | - |
| 1777627519 | 4.44° C | 84% | 1018.2 hPa | 0 mm | - | 0 W/m² | - |
| 1777627215 | 5° C | 85% | 1018.1 hPa | 0 mm | - | 0 W/m² | - |
| 1777626912 | 4.44° C | 85% | 1018.1 hPa | 0 mm | - | 0 W/m² | - |
| 1777626609 | 5° C | 86% | 1018.1 hPa | 0 mm | - | 0 W/m² | - |
| 1777626309 | 5° C | 86% | 1018.2 hPa | 0 mm | - | 0 W/m² | - |
| 1777626008 | 5° C | 84% | 1018.2 hPa | 0 mm | - | 0 W/m² | - |
| 1777625702 | 5° C | 87% | 1018 hPa | 0 mm | - | 0 W/m² | - |
| 1777625398 | 5° C | 86% | 1018.3 hPa | 0 mm | - | 0 W/m² | - |
| 1777625095 | 5° C | 85% | 1018.3 hPa | 0 mm | - | 0 W/m² | - |
| 1777624791 | 5° C | 84% | 1018.2 hPa | 0 mm | - | 0 W/m² | - |
| 1777624486 | 5° C | 83% | 1018.1 hPa | 0 mm | - | 0 W/m² | - |
| 1777624185 | 5° C | 85% | 1018.1 hPa | 0 mm | - | 0 W/m² | - |
| 1777623880 | 5° C | 83% | 1018.2 hPa | 0 mm | - | 0 W/m² | - |
| 1777623577 | 5° C | 85% | 1018.3 hPa | 0 mm | - | 0 W/m² | - |
| 1777623276 | 5° C | 85% | 1018.3 hPa | 0 mm | - | 0 W/m² | - |
| 1777622971 | 5.56° C | 84% | 1018.5 hPa | 0 mm | - | 0 W/m² | - |
| 1777622669 | 5.56° C | 83% | 1018.5 hPa | 0 mm | - | 0 W/m² | - |
| 1777622365 | 6.11° C | 81% | 1018.5 hPa | 0 mm | - | 0 W/m² | - |
* Rain latest hour (hover to see other rain measurements)
** Current wind speed in m/s (hover to see current wind gust speed)